RH
22 23 23 23 22 24 23 23 8 6 6 6 6 6 6 5 5 5 6 15 37 63 78 88 85 98 98
29 30 26 26 29 27 16 6 6 8 8 8 7 7 9 10 11 9 7 9 20 58 69 96 100 100 100
34 32 30 25 15 6 7 9 11 11 12 11 11 12 14 15 14 12 10 8 8 12 33 58 76 83 86
11 7 6 8 9 11 14 16 18 18 20 20 20 20 19 17 14 12 10 8 6 5 6 10 20 43 72
12 13 15 16 18 20 22 24 24 24 24 23 20 18 15 11 8 6 5 4 4 3 3 3 3 4 6
18 21 23 25 27 27 27 27 26 24 22 19 14 12 10 10 10 10 9 7 5 4 4 4 3 3 3
26 28 30 31 31 30 29 26 24 22 18 15 13 14 16 17 17 16 14 12 10 8 6 5 4 4 4
32 34 34 34 32 30 26 24 22 18 16 17 18 22 24 25 25 24 23 20 17 14 11 9 7 6 6
39 40 41 40 35 29 26 22 21 18 16 18 21 26 30 30 30 28 25 24 21 18 16 14 12 10 10
40 41 44 45 41 34 27 22 19 16 16 21 25 29 32 33 30 30 28 29 26 22 20 18 16 14 13
40 43 46 48 46 40 30 24 20 18 21 26 32 34 34 33 34 33 31 30 28 25 22 19 17 15 13
41 44 46 55 59 53 44 37 32 30 31 34 36 40 40 36 33 32 34 32 28 21 20 18 16 15 15
42 45 47 59 63 64 63 55 44 41 42 41 45 49 45 35 35 34 33 30 25 22 21 19 18 18 18
43 46 51 63 67 66 67 67 62 55 50 52 55 50 38 37 38 37 38 32 26 24 23 22 20 20 22
42 44 54 67 72 69 71 73 67 57 58 60 53 41 37 40 40 40 40 35 32 26 24 23 25 27 28
41 44 57 74 78 74 75 78 76 66 61 53 43 40 43 42 44 44 42 37 31 27 26 25 27 33 35
45 45 61 74 83 78 75 75 72 63 56 50 50 51 54 53 47 46 43 37 32 29 30 30 30 38 40
Wind_Speed
22 22 19 19 17 18 18 17 16 15 15 14 14 14 14 14 14 14 13 13 12 12 17 18 19 24 37
21 20 16 17 17 17 15 15 16 17 16 16 16 15 15 15 15 16 15 16 15 16 18 16 29 32 39
14 14 13 14 14 15 16 17 17 17 17 17 17 17 16 16 16 17 17 17 17 17 19 20 21 21 22
9 11 12 14 16 16 16 17 17 18 17 17 17 18 17 17 17 17 16 17 18 19 20 21 23 24 24
11 12 14 15 16 17 17 17 18 19 18 16 18 17 16 16 16 16 16 17 18 19 20 21 22 23 24
14 15 16 16 16 16 18 17 17 20 18 16 16 17 16 16 16 16 17 18 18 18 19 20 22 23 25
16 16 16 16 16 16 17 17 18 17 17 16 16 16 16 17 16 16 17 18 18 18 19 20 21 22 23
16 15 15 17 17 17 17 17 17 16 16 16 16 16 16 17 17 18 18 19 19 19 20 21 21 22 23
15 15 17 17 17 18 18 17 16 17 16 17 17 17 18 18 18 18 19 20 20 20 21 22 23 24 25
16 17 18 17 17 17 17 18 17 17 18 18 18 19 18 19 19 19 21 22 23 23 23 25 26 27 27
16 17 16 16 17 17 18 18 19 18 20 20 21 19 19 18 20 20 22 23 24 25 26 27 28 29 29
16 16 17 18 18 18 19 20 21 21 21 21 21 20 19 18 19 21 24 26 26 27 29 29 29 29 29
17 18 18 19 19 21 21 21 22 22 22 22 22 21 20 19 17 22 25 27 29 30 31 29 29 29 29
19 19 20 21 21 22 23 22 23 23 23 22 22 22 22 23 21 22 26 26 28 31 31 29 29 29 29
22 22 22 22 23 22 22 21 21 24 25 24 24 24 25 25 24 26 26 27 30 31 32 30 27 27 29
24 24 25 25 24 23 22 22 22 24 24 25 26 27 27 25 29 27 28 29 31 32 33 33 27 25 29
26 26 27 27 25 24 24 23 23 23 24 25 28 30 30 29 26 29 29 29 31 30 31 33 32 26 28
Wind_Direction
281 279 282 280 276 275 280 280 283 286 290 292 292 289 288 289 291 293 291 282 276 264 253 253 260 259 247
276 276 278 277 277 279 281 283 287 291 295 295 295 293 292 294 295 294 293 291 286 273 279 251 249 255 261
268 276 280 281 280 282 285 288 292 295 296 296 296 292 293 294 293 290 289 286 282 275 271 273 274 273 272
263 268 275 279 282 284 286 291 294 292 291 296 296 294 295 293 289 288 287 285 283 281 277 272 270 271 268
266 268 271 275 279 285 289 291 294 293 295 298 294 295 292 290 289 290 288 286 282 281 279 278 277 273 269
271 271 272 275 279 284 287 289 291 288 294 294 291 291 291 290 292 293 292 290 287 283 280 278 277 277 277
272 275 279 282 283 285 286 289 289 288 290 290 290 291 292 294 297 297 296 296 296 295 291 286 282 278 276
276 280 286 287 288 288 285 284 284 285 285 285 287 289 290 292 295 297 297 298 297 297 295 292 288 282 276
282 288 289 290 291 288 286 286 284 283 282 282 284 287 289 291 292 293 294 295 296 296 294 291 287 282 278
290 292 294 294 293 289 287 285 282 281 281 281 281 284 287 290 292 296 296 296 296 296 293 289 288 286 283
292 295 297 298 294 292 290 286 284 281 280 280 283 284 287 289 293 294 293 293 295 294 292 290 289 288 285
291 294 297 297 296 291 288 286 284 282 282 283 283 286 287 289 294 295 294 294 295 293 291 291 291 290 288
287 292 297 300 296 291 287 284 284 285 284 284 286 288 287 287 290 290 291 294 295 292 291 292 291 291 288
284 289 294 299 299 294 288 285 285 284 284 283 284 285 289 293 297 291 290 292 288 288 290 290 291 291 287
282 287 292 298 301 297 289 283 279 282 284 284 287 290 293 296 297 295 295 294 291 289 290 291 291 287 284
281 285 291 296 298 295 288 281 277 276 278 283 287 289 291 295 296 296 297 294 291 291 293 292 291 283 280
282 285 289 293 295 290 286 280 277 280 283 285 287 290 293 295 293 297 296 292 291 291 291 291 293 289 282